Flag for United Kingdom Weather past 2 weeks in Southampton, England, United Kingdom

Now
61 °F

Passing clouds.


Feels Like: 61 °F
Forecast: 50 / 65 °F
Wind: 5 mph from West

Location: Southampton / Weather Centre

Current Time: Sep 23, 2014 at 2:31:30 PM

Latest Report: Sep 23, 2014 at 1:50 PM


Visibility: N/A

Pressure: 30.12 "Hg

Humidity: 55%

Dew point: 45 °F

Location of SouthamptonLocation

Historic Weather in Southampton — Graph

°F

Southampton temperature yesterday

Maximum temperature yesterday: 64 °F (at 4:20 PM)
Minimum temperature yesterday: 37 °F (at 6:50 AM)
Average temperature yesterday: 54 °F

Past Weeks' High & Low Weather Summary

 TemperatureHumidityPressure
High73 °F (Sep 16, 1:50 PM)100% (Sep 9, 5:50 AM)30.33 "Hg (Sep 9, 5:50 AM)
Low37 °F (Sep 22, 6:50 AM)46% (Sep 8, 3:50 PM)29.77 "Hg (Sep 18, 5:50 AM)
Average60 °F77%30.08 "Hg
* Reported Sep 8 1:20 PM — Sep 23 1:20 PM, Southampton, Weather by CustomWeather, © 2014

Note: Actual official high and low records may vary slightly from our data, if they occured in-between our weather recording intervals... More about our weather records

Advertising

Southampton weather history for previous 24 hours

 ConditionsComfort  
Time TempWeatherWind HumidityBarometerVisibility
1:20 PM
Sep 23
63 °FPassing clouds.3 mph52%30.15 "HgN/A
12:50 PM61 °FPassing clouds.2 mph55%30.15 "HgN/A
12:20 PM59 °FPassing clouds.No wind63%30.18 "HgN/A
11:20 AM50 °FFog.No wind100%30.18 "Hg2 mi
10:50 AM48 °FFog.No wind94%30.18 "Hg1 mi
10:20 AM46 °FFog.No wind100%30.18 "Hg1 mi
9:50 AM45 °FFog.No wind100%30.21 "Hg0 mi
9:20 AM45 °FFog.No wind100%30.21 "Hg0 mi
8:50 AM45 °FFog.No wind100%30.21 "Hg0 mi
8:20 AM43 °FFog.No wind93%30.21 "Hg0 mi
7:50 AM43 °FFog.No wind93%30.18 "Hg0 mi
7:20 AM41 °FFog.2 mph100%30.18 "Hg0 mi
6:50 AM39 °FFog.2 mph100%30.18 "Hg1 mi
6:20 AM37 °FSnow. Fog.No wind100%30.18 "Hg1 mi
5:50 AM37 °FPassing clouds.1 mph100%30.18 "Hg1 mi
10:20 PM
Sep 22
52 °FClear.2 mph82%30.27 "Hg6 mi
9:50 PM52 °FClear.No wind82%30.27 "Hg6 mi
9:20 PM54 °FClear.6 mph82%30.27 "Hg6 mi
8:50 PM54 °FClear.5 mph82%30.27 "Hg6 mi
8:20 PM54 °FClear.6 mph82%30.27 "Hg6 mi
7:50 PM55 °FPassing clouds.3 mph77%30.27 "HgN/A
7:20 PM54 °FPassing clouds.No wind82%30.24 "HgN/A
6:50 PM55 °FPassing clouds.No wind82%30.24 "HgN/A
6:20 PM61 °FPassing clouds.No wind55%30.24 "HgN/A
5:50 PM63 °FPassing clouds.3 mph56%30.24 "HgN/A
5:20 PM63 °FPassing clouds.6 mph52%30.24 "HgN/A
4:50 PM63 °FPassing clouds.3 mph49%30.24 "HgN/A
4:20 PM64 °FPassing clouds.3 mph46%30.24 "HgN/A
3:50 PM63 °FPassing clouds.6 mph52%30.27 "HgN/A
3:20 PM63 °FSunny.3 mph52%30.27 "Hg10 mi
2:50 PM63 °FPassing clouds.5 mph56%30.27 "HgN/A
2:20 PM63 °FPassing clouds.2 mph52%30.27 "HgN/A
Weather by CustomWeather, © 2014

See weather overviewHow to use our weather pages